Location: Lafig�re
(44.4503°N, 4.0357°E)
Time: 22:08:55
(UTC+00:00)

Cosmos 1092 Rocket - Pass Details

Date: 31 January 2021
Orbit: 954 x 995 km, 83.0° (Epoch: 07 March)

Event Time Altitude Azimuth Distance (km) Brightness Sun altitude
Rises 17:56:47 0° 200° (SSW) 3,637 7.5 -11.8°
Reaches altitude 10° 17:59:20 10° 204° (SSW) 2,690 6.8 -12.3°
Maximum altitude 18:05:21 55° 282° (WNW) 1,138 4.7 -13.3°
Drops below altitude 10° 18:11:23 10° 0° (N) 2,694 6.2 -14.4°
Sets 18:13:57 0° 5° (N) 3,643 6.8 -14.8°
